IRIDIUM 22 [-]

Last updated on Wed Jun 28 2023 00:03:01 GMT+0000 (Coordinated Universal Time)

1 24907U 97043E 23178.07083813 .00000420 00000+0 14114-3 0 9995 2 24907 86.3961 56.0851 0002263 85.9726 274.1728 14.34833170353323
UTC large
Height (km)
Speed (km/s)
/
Latitude / Longitude
Inclination (degrees)
Orbital Period (minutes)
Azimuth
Elevation
Range (km)
Doppler Factor

Next 0 passes for location: London (51.5072 / 0.1276)

Sorry there are no passes over London.